Joplin, MO

10:04 AM CST on December 06, 2019 (GMT -0600)
Joplin Regional

Weather History for KJLN - November, 2019

Change the Weather History Date:

Tuesday, November 19, 2019

  Actual Average Record
Temperature  
Mean Temperature 50 °F 47 °F  
Max Temperature 66 °F 57 °F 75 °F (1950)
Min Temperature 35 °F 37 °F 21 °F (1969)
Degree Days  
Heating Degree Days 14 18  
Month to date heating degree days 408 273  
Since 1 July heating degree days 732 525  
Cooling Degree Days 0 0  
Month to date cooling degree days 0 5  
Year to date cooling degree days 1696 1696  
Moisture  
Dew Point 35 °F    
Average Humidity 53    
Maximum Humidity 79    
Minimum Humidity 29    
Precipitation  
Precipitation 0.00 in 0.12 in 1.54 in (1994)
Month to date precipitation 0.55 2.47  
Year to date precipitation 59.08 42.42  
Sea Level Pressure  
Sea Level Pressure 29.94 in    
Wind  
Wind Speed 3 mph ()    
Max Wind Speed 12 mph    
Max Gust Speed 18 mph    
Visibility 10.0 miles    
Events      
T = Trace of Precipitation, MM = Missing Value Source: Averaged Metar Reports

Daily Weather History Graph

Daily Weather History Graph

Search for Another Location

Airport or City:

Astronomy

Nov. 19, 2019 Rise Set
Actual Time 7:00 AM CST 5:05 PM CST
Civil Twilight 6:32 AM CST 5:33 PM CST
Nautical Twilight 6:01 AM CST 6:05 PM CST
Astronomical Twilight 5:30 AM CST 6:36 PM CST
Moon No Moon Rise 1:12 PM CST (11/19)
Length of Visible Light 11h 00m
Length of Day
10h 04m
Waning Gibbous, 51% of the Moon is Illuminated
Nov 19
Waning Gibbous
Nov 19
Last Quarter
Nov 26
New
Dec 4
First Quarter
Dec 11
Full

Hourly Weather History & Observations

Time (CST) Temp. Windchill Dew Point Humidity Pressure Visibility Wind Dir Wind Speed Gust Speed Precip Events Conditions
12:53 AM 48.0 °F - 37.9 °F 68% 29.83 in 10.0 mi WNW 5.8 mph - N/A   Clear
1:53 AM 46.9 °F - 37.0 °F 68% 29.85 in 10.0 mi Calm Calm - N/A   Clear
2:53 AM 46.0 °F - 36.0 °F 68% 29.86 in 10.0 mi Calm Calm - N/A   Clear
3:53 AM 42.1 °F 39.2 °F 34.0 °F 73% 29.87 in 10.0 mi WSW 4.6 mph - N/A   Clear
4:53 AM 42.1 °F - 35.1 °F 76% 29.88 in 10.0 mi Calm Calm - N/A   Clear
5:53 AM 39.9 °F - 34.0 °F 79% 29.91 in 10.0 mi Calm Calm - N/A   Clear
6:53 AM 39.9 °F 37.8 °F 34.0 °F 79% 29.92 in 10.0 mi Variable 3.5 mph - N/A   Clear
7:53 AM 39.9 °F 37.8 °F 34.0 °F 79% 29.95 in 10.0 mi SW 3.5 mph - N/A   Clear
8:53 AM 48.0 °F - 37.9 °F 68% 29.97 in 10.0 mi West 5.8 mph - N/A   Clear
9:53 AM 53.1 °F - 39.9 °F 61% 30.00 in 10.0 mi NW 5.8 mph - N/A   Clear
10:53 AM 59.0 °F - 39.0 °F 48% 30.00 in 10.0 mi NNW 6.9 mph - N/A   Clear
11:53 AM 61.0 °F - 37.9 °F 42% 29.98 in 10.0 mi WNW 5.8 mph - N/A   Clear
12:53 PM 63.0 °F - 37.0 °F 38% 29.96 in 10.0 mi Variable 3.5 mph - N/A   Clear
1:53 PM 64.0 °F - 34.0 °F 33% 29.94 in 10.0 mi Calm Calm - N/A   Clear
2:53 PM 64.9 °F - 34.0 °F 32% 29.94 in 10.0 mi Variable 3.5 mph - N/A   Clear
3:53 PM 64.9 °F - 32.0 °F 29% 29.94 in 10.0 mi South 3.5 mph - N/A   Clear
4:53 PM 61.0 °F - 32.0 °F 34% 29.94 in 10.0 mi East 3.5 mph - N/A   Clear
5:53 PM 57.0 °F - 30.9 °F 37% 29.95 in 10.0 mi ESE 3.5 mph - N/A   Clear
6:53 PM 54.0 °F - 32.0 °F 43% 29.95 in 10.0 mi ESE 4.6 mph - N/A   Clear
7:53 PM 53.1 °F - 32.0 °F 45% 29.96 in 10.0 mi ESE 5.8 mph - N/A   Clear
8:53 PM 54.0 °F - 32.0 °F 43% 29.96 in 10.0 mi SE 6.9 mph - N/A   Clear
9:53 PM 53.1 °F - 32.0 °F 45% 29.97 in 10.0 mi SE 5.8 mph - N/A   Clear
10:53 PM 53.1 °F - 32.0 °F 45% 29.96 in 10.0 mi SSE 8.1 mph - N/A   Clear
11:53 PM 55.9 °F - 33.1 °F 42% 29.95 in 10.0 mi SE 9.2 mph - N/A   Clear